AFR566 LFPG-EDDF

Flight info

Callsign AFR566
Flight time N/A
Altitude 35000
Route RANU6K RANUX VALEK LIPNI UN858 LIMGO Z111 RAMOB IMCO1A
Aircraft A346/H-SDE3E/C

Departure

Time 2026-05-06 22:41
Airport Charles de Gaulle International Airport (LFPG)

Arrival

Time N/A
Airport Frankfurt Main Airport (EDDF)
Time Latitude Longitude Altitude Speed Heading
2026-05-06 22:41 49.04726 3.00779 5998 ft 294 kts 83°
2026-05-06 22:41 49.04959 3.03896 6257 ft 303 kts 83°
2026-05-06 22:41 49.05196 3.07107 7117 ft 301 kts 83°
2026-05-06 22:42 49.05427 3.10246 7917 ft 301 kts 83°
2026-05-06 22:42 49.05662 3.13463 8555 ft 305 kts 83°
2026-05-06 22:42 49.05895 3.16669 8903 ft 307 kts 83°
2026-05-06 22:42 49.06129 3.19904 8983 ft 307 kts 83°
2026-05-06 22:43 49.06364 3.23176 8990 ft 307 kts 83°
2026-05-06 22:43 49.06904 3.30712 8997 ft 307 kts 83°
2026-05-06 22:43 49.07361 3.37146 8998 ft 307 kts 83°
2026-05-06 22:43 49.07539 3.39673 9034 ft 307 kts 83°
2026-05-06 22:44 49.07768 3.42942 9018 ft 307 kts 83°
2026-05-06 22:44 49.07993 3.46163 9007 ft 307 kts 83°
2026-05-06 22:44 49.08217 3.49388 9002 ft 307 kts 83°
2026-05-06 22:44 49.08655 3.55720 8999 ft 307 kts 83°
2026-05-06 22:45 49.09089 3.62049 8998 ft 307 kts 83°
2026-05-06 22:45 49.09510 3.68261 8998 ft 307 kts 84°
2026-05-06 22:45 49.09967 3.75107 9000 ft 350 kts 84°
2026-05-06 22:45 49.10468 3.82680 9727 ft 369 kts 84°
2026-05-06 22:46 49.10973 3.90376 11425 ft 368 kts 84°
2026-05-06 22:46 49.11469 3.97990 11992 ft 371 kts 84°
2026-05-06 22:46 49.11957 4.05569 11996 ft 371 kts 84°
2026-05-06 22:46 49.12443 4.13200 11997 ft 371 kts 84°
2026-05-06 22:47 49.12935 4.20987 11998 ft 371 kts 84°
2026-05-06 22:47 49.13422 4.28809 11998 ft 371 kts 84°
2026-05-06 22:47 49.14164 4.36414 11996 ft 370 kts 75°
2026-05-06 22:47 49.15897 4.43790 11997 ft 371 kts 67°
2026-05-06 22:48 49.17892 4.51017 11998 ft 371 kts 66°
2026-05-06 22:48 49.19876 4.58265 11998 ft 371 kts 67°
2026-05-06 22:48 49.21849 4.65550 11998 ft 371 kts 68°
2026-05-06 22:48 49.23780 4.72744 11997 ft 371 kts 68°
2026-05-06 22:49 49.25733 4.80040 11997 ft 371 kts 68°
2026-05-06 22:49 49.27685 4.87345 11997 ft 371 kts 68°
2026-05-06 22:49 49.29635 4.94664 11997 ft 371 kts 68°
2026-05-06 22:49 49.31544 5.01846 11997 ft 371 kts 68°
2026-05-06 22:50 49.33483 5.09155 11998 ft 371 kts 68°
2026-05-06 22:50 49.35415 5.16463 11998 ft 371 kts 68°
2026-05-06 22:50 49.37310 5.23660 11998 ft 371 kts 68°
2026-05-06 22:50 49.39176 5.30764 11998 ft 371 kts 68°
2026-05-06 22:51 49.41056 5.37950 11998 ft 371 kts 68°
2026-05-06 22:51 49.42934 5.45151 11998 ft 371 kts 68°
2026-05-06 22:51 49.44833 5.52450 11998 ft 371 kts 68°
2026-05-06 22:51 49.46708 5.59686 11777 ft 364 kts 68°
2026-05-06 22:52 49.48581 5.66950 10721 ft 364 kts 69°
2026-05-06 22:52 49.50404 5.74065 9832 ft 358 kts 69°
2026-05-06 22:52 49.52122 5.80866 8963 ft 354 kts 70°
2026-05-06 22:52 49.53757 5.87664 8102 ft 350 kts 69°
2026-05-06 22:53 49.55438 5.94464 7236 ft 346 kts 69°
2026-05-06 22:53 49.57101 6.01191 6380 ft 341 kts 69°
2026-05-06 22:53 49.58757 6.07906 5577 ft 341 kts 69°
2026-05-06 22:53 49.60332 6.14319 6339 ft 348 kts 69°
2026-05-06 22:54 49.62004 6.21159 6993 ft 346 kts 69°
2026-05-06 22:54 49.63755 6.27860 6995 ft 345 kts 64°
2026-05-06 22:54 49.65994 6.34168 6997 ft 345 kts 59°
2026-05-06 22:54 49.68449 6.40476 6997 ft 345 kts 59°
2026-05-06 22:55 49.70893 6.46810 6997 ft 345 kts 59°
2026-05-06 22:55 49.73467 6.53150 6997 ft 345 kts 54°
2026-05-06 22:55 49.76300 6.58970 6997 ft 345 kts 52°
2026-05-06 22:55 49.79240 6.64908 6997 ft 345 kts 52°
2026-05-06 22:56 49.81985 6.70503 6998 ft 345 kts 53°
2026-05-06 22:56 49.84734 6.76122 6998 ft 345 kts 53°
2026-05-06 22:56 49.87456 6.81692 6998 ft 345 kts 53°
2026-05-06 22:56 49.90270 6.87455 6998 ft 345 kts 53°
2026-05-06 22:57 49.93056 6.93174 6998 ft 345 kts 53°
2026-05-06 22:57 49.95890 6.99001 6998 ft 345 kts 53°
2026-05-06 22:57 49.98716 7.04826 6998 ft 345 kts 53°
2026-05-06 22:57 50.01500 7.10581 6994 ft 329 kts 53°
2026-05-06 22:58 50.03524 7.16736 6662 ft 310 kts 73°
2026-05-06 22:58 50.04459 7.22813 6219 ft 298 kts 77°
2026-05-06 22:58 50.05340 7.28994 5496 ft 296 kts 77°
2026-05-06 22:58 50.06248 7.35205 5003 ft 292 kts 77°
2026-05-06 22:59 50.07158 7.41372 4998 ft 294 kts 77°
2026-05-06 22:59 50.08073 7.47581 4997 ft 294 kts 77°
2026-05-06 22:59 50.08978 7.53730 4997 ft 294 kts 77°
2026-05-06 22:59 50.09867 7.59809 4997 ft 294 kts 77°
2026-05-06 23:00 50.10738 7.65732 4996 ft 294 kts 80°
2026-05-06 23:00 50.10279 7.71718 5003 ft 294 kts 112°
2026-05-06 23:00 50.08646 7.77448 4999 ft 294 kts 115°
2026-05-06 23:00 50.07008 7.83066 4998 ft 294 kts 114°
2026-05-06 23:01 50.05333 7.88887 4997 ft 294 kts 114°
2026-05-06 23:01 50.03687 7.94635 4997 ft 294 kts 114°
2026-05-06 23:01 50.02020 8.00462 4998 ft 294 kts 114°
2026-05-06 23:01 50.00387 8.06157 4998 ft 294 kts 114°
2026-05-06 23:02 49.98763 8.11809 4998 ft 294 kts 114°
2026-05-06 23:02 49.97100 8.17586 4998 ft 294 kts 114°
2026-05-06 23:02 49.95434 8.23362 4998 ft 294 kts 114°
2026-05-06 23:02 49.93751 8.29180 4998 ft 294 kts 114°
2026-05-06 23:03 49.92079 8.34948 4998 ft 294 kts 114°
2026-05-06 23:03 49.90396 8.40740 4998 ft 294 kts 114°
2026-05-06 23:03 49.88727 8.46416 4998 ft 294 kts 114°
2026-05-06 23:03 49.87051 8.52083 4997 ft 294 kts 114°
2026-05-06 23:04 49.85353 8.57855 4997 ft 294 kts 114°
2026-05-06 23:04 49.83660 8.63615 4997 ft 294 kts 114°
2026-05-06 23:04 49.82011 8.69381 4992 ft 294 kts 107°
2026-05-06 23:04 49.82784 8.75186 5005 ft 294 kts 53°
2026-05-06 23:05 49.85297 8.80187 5001 ft 294 kts 52°
2026-05-06 23:05 49.87764 8.85255 4998 ft 294 kts 53°
2026-05-06 23:05 49.90166 8.90371 4998 ft 294 kts 54°
2026-05-06 23:05 49.92189 8.94743 4998 ft 294 kts 54°
2026-05-06 23:06 49.93380 8.97329 4989 ft 291 kts 54°
2026-05-06 23:06 49.94530 8.99832 4815 ft 285 kts 54°
2026-05-06 23:06 49.95675 9.02325 4441 ft 285 kts 54°
2026-05-06 23:06 49.96836 9.04858 4062 ft 285 kts 54°
2026-05-06 23:07 49.97974 9.07343 3690 ft 285 kts 54°
2026-05-06 23:07 49.99124 9.09859 3314 ft 286 kts 54°
2026-05-06 23:07 50.00260 9.12345 2932 ft 281 kts 54°
2026-05-06 23:07 50.01414 9.14684 2820 ft 259 kts 41°
2026-05-06 23:08 50.02948 9.15896 2802 ft 245 kts
2026-05-06 23:08 50.04625 9.15888 2804 ft 244 kts 350°
2026-05-06 23:08 50.06297 9.15363 2802 ft 244 kts 347°
2026-05-06 23:08 50.07984 9.14803 2911 ft 250 kts 348°
2026-05-06 23:09 50.09655 9.14289 3090 ft 242 kts 349°
2026-05-06 23:09 50.11298 9.13819 3091 ft 239 kts 350°
2026-05-06 23:09 50.12945 9.13367 3094 ft 238 kts 349°
2026-05-06 23:09 50.14476 9.12477 3085 ft 238 kts 321°
2026-05-06 23:10 50.15482 9.10476 3094 ft 238 kts 289°
2026-05-06 23:10 50.15664 9.07932 3100 ft 238 kts 258°
2026-05-06 23:10 50.15162 9.05465 3106 ft 238 kts 249°
2026-05-06 23:10 50.14558 9.03026 3102 ft 238 kts 249°
2026-05-06 23:11 50.13963 9.00616 3099 ft 238 kts 249°
2026-05-06 23:11 50.13380 8.98205 3098 ft 238 kts 249°
2026-05-06 23:11 50.12818 8.95842 3093 ft 226 kts 250°
2026-05-06 23:11 50.12289 8.93603 3094 ft 218 kts 250°
2026-05-06 23:12 50.11765 8.91367 3096 ft 218 kts 250°
2026-05-06 23:12 50.11251 8.89164 3097 ft 218 kts 250°
2026-05-06 23:12 50.10734 8.86942 3046 ft 215 kts 250°
2026-05-06 23:12 50.10223 8.84752 2782 ft 215 kts 250°
2026-05-06 23:13 50.09701 8.82556 2711 ft 216 kts 250°
2026-05-06 23:13 50.09181 8.80370 2704 ft 217 kts 250°
2026-05-06 23:13 50.08680 8.78145 2701 ft 217 kts 251°
2026-05-06 23:13 50.08174 8.75935 2642 ft 217 kts 250°
2026-05-06 23:14 50.07651 8.73745 2396 ft 212 kts 249°
2026-05-06 23:14 50.07143 8.71664 2106 ft 201 kts 249°
2026-05-06 23:14 50.06667 8.69705 1840 ft 188 kts 249°
2026-05-06 23:14 50.06218 8.67854 1593 ft 175 kts 249°
2026-05-06 23:15 50.05799 8.66117 1370 ft 168 kts 250°
2026-05-06 23:15 50.05391 8.64422 1159 ft 167 kts 250°
2026-05-06 23:15 50.04982 8.62720 944 ft 167 kts 250°
2026-05-06 23:15 50.04579 8.61044 729 ft 166 kts 250°
2026-05-06 23:16 50.04171 8.59343 512 ft 166 kts 250°
2026-05-06 23:16 50.03777 8.57699 366 ft 157 kts 250°
2026-05-06 23:16 50.03429 8.56261 348 ft 118 kts 249°